Location: Cheyres
(46.8153°N, 6.7877°E)
Time: 12:20:41
(UTC+00:00)

USA 245 - Pass Details

Date: 11 May 2021
Orbit: 265 x 982 km, 97.9° (Epoch: 13 June)

Event Time Altitude Azimuth Distance (km) Brightness Sun altitude
Exits shadow 19:45:40 - 93° (E) 1,146 4.5 -7.9°
Reaches altitude 10° 19:46:04 10° 84° (E) 1,076 4.4 -8.0°
Maximum altitude 19:46:45 11° 66° (ENE) 1,030 4.5 -8.1°
Drops below altitude 10° 19:47:26 10° 48° (NE) 1,082 4.7 -8.2°
Sets 19:50:13 0° 7° (N) 1,938 6.6 -8.6°
